COSMOS 1275 DEB, 27733

Orbit data source: Space-Track

COSMOS 1275 DEB, 27733 is space debris in LEO originally from a launch on Thu, 04 Jun 1981 UTC launched from the Plesetsk Missile And Space Complex (PKMTR). Debris objects in space refer to the collection of defunct objects orbiting the Earth. Examples of debris include non-operational satellites, rocket bodies, and fragments generated from explosions, collisions, or faulty payload assembly.

Loading next visibility...
Identifier
27733, 1981-053MN
Orbit
LEO
Country
Flag of CISCIS
Related business
Manufacturer
Unknown
Mission
Spacecraft
Bus & Motor
Unknown
Mass
Unknown
Launch date (UTC)
1981-06-04 (45 years ago)
Launch vehicle
Unknown
Launch site
Plesetsk Missile And Space Complex (PKMTR)
Object type
Payload
Rocket body
Debris
Shape & HBR
Unknown shape, 0.1 m
Radar Cross Section
Small (<0.1 m²)

Expand to show TLE details & history
Last TLE update: 3 days ago

TLE from 3 days ago
0 COSMOS 1275 DEB
1 27733U 81053MN  25350.66202434  .00002499  00000-0  11427-2 0  9992
2 27733  83.1108 325.6100 0027200 189.7868 170.2788 14.20936354341446
Epoch: 2025-12-16T15:53Z
TLE epoch observation values (Epoch: 2025-12-16T15:53:18.902Z)
Latitude
-0.00007°
Longitude
1.73821°
Altitude
844.465 km
Speed
7.421 km/s
True Right ascension
21h 42m 26s
True Declination
0° 00' 00"
Sunlit
Object was in daylight at epoch
Visualization orbit readout
Latitude
Unknown
Longitude
Unknown
Altitude
Unknown
Speed
Unknown
Apparent Right ascension
Unknown
Apparent Declination
Unknown
Sunlit
N/A
Visualization observer readout
Local Sidereal Time
12:45:59
Azimuth
Unknown
Elevation
Unknown
Doppler factor
Unknown
Orbital elements
Apogee altitude
838.844 km
Perigee altitude
799.69 km
Semi-major axis
7,197.404 km
Eccentricity
0.00272
Inclination
83.1108°
RAAN
325.61°
Arg. of periapsis
189.7868°
True anomaly
170.33125°
Mean anomaly
170.2788°
Eccentric anomaly
170.30504°
Mean motion
3.55451 °/min
Orbital period
101.28 mins
BSTAR
0.0011427
Loading maneuver chart data...
Computing Atmospheric mass density...
Loading historical data...
Loading historical data...
Loading historical data...
Loading historical data...
Loading historical data...
Loading historical data...
Loading historical data...

Documentation

Showing up to 5 results
|